Hartford, CT

10:21 AM EST on February 07, 2016 (GMT -0500)
Hartford-brainard

Weather History for KHFD - June, 2014

Change the Weather History Date:

Thursday, June 5, 2014

  Actual Average Record
Temperature  
Mean Temperature 65 °F -  
Max Temperature 70 °F 75 °F 96 °F (1925)
Min Temperature 61 °F 53 °F 44 °F (1944)
Growing Degree Days 15 (Base 50)    
Moisture  
Dew Point 59 °F    
Average Humidity 85    
Maximum Humidity 96    
Minimum Humidity 58    
Precipitation  
Precipitation 0.26 in - - ()
Sea Level Pressure  
Sea Level Pressure 29.70 in    
Wind  
Wind Speed 6 mph (NNE)    
Max Wind Speed 15 mph    
Max Gust Speed 23 mph    
Visibility 8 miles    
Events Rain    
Averages and records for this station are not official NWS values.
T = Trace of Precipitation, MM = Missing Value Source: NWS Daily Summary

Daily Weather History Graph

Daily Weather History Graph

Search for Another Location

Airport or City:

Trip Planner

Search our weather history database for the weather conditions in past years. The results will help you decide how hot, cold, wet, or windy it might be!

Date:

Astronomy

Jun. 05, 2014 Rise Set
Actual Time 5:16 AM EDT 8:21 PM EDT
Civil Twilight 4:43 AM EDT 8:55 PM EDT
Nautical Twilight 4:00 AM EDT 9:38 PM EDT
Astronomical Twilight 3:09 AM EDT 10:29 PM EDT
Moon 12:35 PM EDT (6/5) 12:44 AM EDT (6/5)
Length of Visible Light 16h 12m
Length of Day
15h 04m
Waxing Crescent, 48% of the Moon is Illuminated
Jun 5
Waxing Crescent
Jun 5
First Quarter
Jun 13
Full
Jun 19
Last Quarter
Jun 27
New

Hourly Weather History & Observations

Time (EDT) Temp. Dew Point Humidity Pressure Visibility Wind Dir Wind Speed Gust Speed Precip Events Conditions
12:23 AM 64.0 °F 61.0 °F 90% 29.77 in 9.0 mi South 6.9 mph - 0.00 in   Overcast
12:53 AM 63.0 °F 61.0 °F 93% 29.77 in 8.0 mi South 6.9 mph - 0.00 in   Overcast
1:16 AM 63.0 °F 61.0 °F 93% 29.76 in 8.0 mi SSE 5.8 mph - N/A   Overcast
1:53 AM 63.0 °F 60.1 °F 90% 29.75 in 8.0 mi SSE 5.8 mph - N/A   Overcast
2:11 AM 63.0 °F 60.1 °F 90% 29.74 in 9.0 mi SSE 9.2 mph - N/A   Overcast
2:40 AM 63.0 °F 60.1 °F 90% 29.74 in 10.0 mi South 6.9 mph - N/A   Overcast
2:53 AM 63.0 °F 60.1 °F 90% 29.74 in 10.0 mi South 6.9 mph - N/A   Overcast
3:35 AM 63.0 °F 60.1 °F 90% 29.74 in 10.0 mi SSW 4.6 mph - 0.00 in   Overcast
3:53 AM 63.0 °F 60.1 °F 90% 29.73 in 10.0 mi SSE 3.5 mph - 0.00 in   Overcast
4:26 AM 62.1 °F 60.1 °F 93% 29.72 in 10.0 mi South 4.6 mph - N/A   Mostly Cloudy
4:35 AM 62.1 °F 60.1 °F 93% 29.72 in 10.0 mi South 3.5 mph - N/A   Overcast
4:53 AM 62.1 °F 60.1 °F 93% 29.72 in 6.0 mi South 3.5 mph - 0.01 in Rain Light Rain
5:53 AM 62.1 °F 60.1 °F 93% 29.72 in 6.0 mi Calm Calm - 0.01 in   Overcast
6:53 AM 62.1 °F 61.0 °F 96% 29.73 in 3.0 mi Calm Calm - 0.02 in Rain Light Rain
7:24 AM 62.1 °F 61.0 °F 96% 29.72 in 2.5 mi Calm Calm - 0.04 in Rain Rain
7:32 AM 63.0 °F 61.0 °F 93% 29.72 in 4.0 mi Calm Calm - 0.05 in Rain Light Rain
7:53 AM 62.1 °F 60.1 °F 93% 29.73 in 4.0 mi Calm Calm - 0.08 in Rain Rain
8:53 AM 62.1 °F 57.9 °F 86% 29.72 in 7.0 mi Calm Calm - 0.07 in Rain Light Rain
9:35 AM 63.0 °F 60.1 °F 90% 29.70 in 6.0 mi Calm Calm - 0.01 in Rain Light Rain
9:53 AM 63.0 °F 60.1 °F 90% 29.70 in 5.0 mi ENE 3.5 mph - 0.02 in Rain Light Rain
10:31 AM 63.0 °F 59.0 °F 87% 29.70 in 2.5 mi NE 5.8 mph - 0.05 in Rain Rain
10:39 AM 63.0 °F 59.0 °F 87% 29.69 in 3.0 mi NE 5.8 mph - 0.06 in Rain Rain
10:48 AM 62.6 °F 60.8 °F 94% 29.69 in 4.0 mi NE 5.8 mph - 0.07 in Rain Light Rain
11:53 AM 64.0 °F 61.0 °F 90% 29.66 in 9.0 mi NNE 8.1 mph - 0.04 in Rain Light Rain
12:00 PM 64.0 °F 60.1 °F 87% 29.66 in 10.0 mi NNE 4.6 mph - 0.00 in Rain Light Rain
12:35 PM 63.0 °F 59.0 °F 87% 29.66 in 10.0 mi North 13.8 mph - 0.00 in   Overcast
12:44 PM 63.0 °F 59.0 °F 87% 29.67 in 10.0 mi North 9.2 mph - 0.00 in   Overcast
12:53 PM 63.0 °F 59.0 °F 87% 29.67 in 9.0 mi North 6.9 mph - 0.00 in Rain Light Rain
1:00 PM 63.0 °F 59.0 °F 87% 29.67 in 9.0 mi North 11.5 mph 17.3 mph 0.00 in Rain Light Rain
1:19 PM 63.0 °F 59.0 °F 87% 29.65 in 7.0 mi North 15.0 mph 23.0 mph 0.01 in Rain Light Rain
1:53 PM 63.0 °F 57.9 °F 84% 29.65 in 10.0 mi North 12.7 mph - 0.01 in Rain Light Rain
2:53 PM 64.0 °F 60.1 °F 87% 29.66 in 10.0 mi North 10.4 mph - 0.00 in Rain Light Rain
3:02 PM 64.0 °F 59.0 °F 84% 29.66 in 10.0 mi NNW 9.2 mph - 0.00 in   Overcast
3:26 PM 64.9 °F 59.0 °F 81% 29.66 in 10.0 mi North 9.2 mph - 0.00 in   Overcast
3:38 PM 64.9 °F 57.9 °F 78% 29.66 in 10.0 mi North 15.0 mph - 0.00 in   Overcast
3:53 PM 66.0 °F 57.9 °F 75% 29.66 in 10.0 mi North 11.5 mph - 0.00 in   Mostly Cloudy
4:43 PM 69.1 °F 57.9 °F 68% 29.66 in 10.0 mi NNE 8.1 mph - N/A   Mostly Cloudy
4:53 PM 68.0 °F 57.0 °F 68% 29.67 in 10.0 mi NNE 10.4 mph - N/A   Scattered Clouds
5:53 PM 69.1 °F 55.0 °F 61% 29.66 in 10.0 mi NNW 9.2 mph - N/A   Partly Cloudy
6:53 PM 69.1 °F 54.0 °F 58% 29.68 in 10.0 mi North 8.1 mph - N/A   Clear
7:53 PM 66.9 °F 55.0 °F 66% 29.69 in 10.0 mi NNE 4.6 mph - N/A   Partly Cloudy
8:53 PM 62.1 °F 55.9 °F 80% 29.71 in 10.0 mi Calm Calm - N/A   Clear
9:53 PM 61.0 °F 57.0 °F 87% 29.74 in 10.0 mi Calm Calm - N/A   Scattered Clouds
10:53 PM 64.9 °F 50.0 °F 58% 29.76 in 10.0 mi NW 12.7 mph 18.4 mph N/A   Overcast
11:53 PM 64.0 °F 48.9 °F 58% 29.76 in 10.0 mi NNW 10.4 mph - N/A   Overcast